EW2270 Weather Reports


Display with metric or nautical units.
time (UTC)temp
F
wind
direction
speed
MPH
gust
MPH
rain 1hr
in
rain 24hr
in
rain mn
in
humidity
%
barometer
mb
20260505111556 52 121 0.0 1.0 0.00 0.00 0.00 81 1007.7
20260505101605 54 121 0.0 0.0 0.00 0.00 0.00 76 1007.2
20260505094547 57 121 2.0 3.0 0.00 0.00 0.00 69 1007.1
20260505093055 55 121 1.0 3.0 0.00 0.00 0.00 72 1007.0
20260505091544 56 121 0.0 1.0 0.00 0.00 0.00 72 1006.9
20260505090043 55 121 0.0 1.0 0.00 0.00 0.00 70 1006.9
20260505084542 55 121 0.0 1.0 0.00 0.00 0.00 71 1006.8
20260505083041 54 121 0.0 1.0 0.00 0.00 0.00 73 1006.9
20260505081544 55 146 1.0 3.0 0.00 0.00 0.00 71 1006.8
20260505080047 56 118 1.0 3.0 0.00 0.00 0.00 70 1006.7
20260505074536 56 118 0.0 1.0 0.00 0.00 0.00 69 1006.7
20260505073038 56 118 1.0 4.0 0.00 0.00 0.00 70 1006.6
20260505071529 52 119 2.0 4.0 0.00 0.00 0.00 80 1006.3
20260505070026 52 136 1.0 2.0 0.00 0.00 0.00 81 1006.2
20260505064526 53 105 0.0 2.0 0.00 0.00 0.00 79 1006.1
20260505063025 53 105 1.0 5.0 0.00 0.00 0.00 77 1005.9
20260505061528 55 252 1.0 5.0 0.00 0.00 0.00 72 1005.9
20260505060025 58 269 2.0 3.0 0.00 0.00 0.00 67 1005.6
20260505054524 58 269 2.0 3.0 0.00 0.00 0.00 69 1005.5
20260505053034 58 269 1.0 2.0 0.00 0.00 0.00 68 1005.4
20260505051536 59 269 0.0 1.0 0.00 0.00 0.00 63 1005.4
20260505041523 61 264 3.0 4.0 0.00 0.00 0.00 60 1004.9
20260505040020 62 113 1.0 4.0 0.00 0.00 0.00 59 1004.8
20260505034519 61 114 2.0 4.0 0.00 0.00 0.00 61 1004.5
20260505033019 61 118 2.0 4.0 0.00 0.00 0.00 64 1004.4
20260505031521 65 107 2.0 4.0 0.00 0.00 0.00 60 1004.4
20260505030018 68 110 1.0 3.0 0.00 0.00 0.00 56 1004.3
20260505024518 74 97 3.0 5.0 0.00 0.00 0.00 41 1004.3
20260505023020 76 101 3.0 3.0 0.00 0.00 0.00 38 1004.3
20260505021514 77 79 0.0 4.0 0.00 0.00 0.00 34 1004.4
20260505020013 78 74 2.0 5.0 0.00 0.00 0.00 34 1004.5
20260505014513 79 49 5.0 8.0 0.00 0.00 0.00 30 1004.5
20260505013010 79 47 5.0 9.0 0.00 0.00 0.00 29 1004.7
20260505011510 80 24 7.0 11.0 0.00 0.00 0.00 28 1004.8
20260505010016 80 338 6.0 13.0 0.00 0.00 0.00 29 1004.9
20260505004507 81 333 9.0 13.0 0.00 0.00 0.00 25 1004.9
20260505003009 80 327 6.0 12.0 0.00 0.00 0.00 25 1004.9
20260505001504 81 337 7.0 12.0 0.00 0.00 0.00 23 1004.9
20260505000001 80 328 4.0 10.0 0.00 0.00 0.00 27 1004.9
20260504234601 80 321 4.0 10.0 0.00 0.00 0.00 28 1005.0
20260504233058 80 303 5.0 8.0 0.00 0.00 0.00 25 1005.0
20260504231559 81 6 6.0 13.0 0.00 0.00 0.00 26 1005.2
20260504230053 80 336 5.0 10.0 0.00 0.00 0.00 27 1005.3
20260504224551 80 289 6.0 10.0 0.00 0.00 0.00 28 1005.4
20260504223059 80 60 3.0 9.0 0.00 0.00 0.00 30 1005.5
20260504221558 80 274 3.0 10.0 0.00 0.00 0.00 29 1005.7
20260504220045 80 294 4.0 12.0 0.00 0.00 0.00 28 1005.9
20260504214542 80 319 5.0 11.0 0.00 0.00 0.00 31 1006.0
20260504213057 80 337 5.0 9.0 0.00 0.00 0.00 32 1006.2
20260504211541 79 80 0.0 10.0 0.00 0.00 0.00 30 1006.3
20260504210035 79 346 6.0 10.0 0.00 0.00 0.00 30 1006.4
20260504204532 78 257 3.0 9.0 0.00 0.00 0.00 32 1006.6
20260504203043 78 303 5.0 9.0 0.00 0.00 0.00 32 1006.8
20260504201528 78 355 3.0 7.0 0.00 0.00 0.00 33 1006.9
20260504200026 77 293 3.0 10.0 0.00 0.00 0.00 34 1007.0
20260504194531 77 265 4.0 9.0 0.00 0.00 0.00 36 1007.0
20260504193024 77 286 3.0 11.0 0.00 0.00 0.00 34 1007.1
20260504191532 76 284 2.0 8.0 0.00 0.00 0.00 37 1007.1
20260504190020 75 160 1.0 10.0 0.00 0.00 0.00 35 1007.3
20260504184519 74 259 1.0 8.0 0.00 0.00 0.00 38 1007.4
20260504183017 74 266 4.0 8.0 0.00 0.00 0.00 36 1007.5
20260504181518 74 225 4.0 8.0 0.00 0.00 0.00 37 1007.6
20260504180016 72 262 3.0 6.0 0.00 0.00 0.00 40 1007.7
20260504174512 72 272 4.0 9.0 0.00 0.00 0.00 38 1007.7
20260504173011 71 292 4.0 8.0 0.00 0.00 0.00 41 1007.7
20260504171608 70 262 2.0 7.0 0.00 0.00 0.00 41 1007.7